星链-1714 (STARLINK-1714 )

导读

STARLINK-1714是美国太空探索技术公司星链星座的成员,2020年10月6日发射入轨,属于星链项目的第一代低轨互联网通信卫星。它运行在近地轨道,为全球提供高速互联网接入服务,尤其覆盖偏远地区,推动了全球网络互联互通,是星链大规模组网进程中的重要卫星,也体现了美国低轨卫星星座的发展布局。

基本信息
目录编号:
46562
目录名称:
STARLINK-1714
国际标识:
2020-070AG
轨道中心:
EARTH
卫星名称:
星链-1714
卫星全名:
星链-1714 (STARLINK-1714 )
卫星状态:
在轨 (已飞行2081 天)
发射日期:
2020-10-06 UTC
国别 :
美国 (US)
星等 :
--
轨道信息
数据来源 国际轨道数据
星历时间: 2026-06-18T19:34:39+0800
8小时前
查看轨道信息
半长轴: 6725.278km
偏心率: 0.0003378
轨道倾角: 53.037°
近地点辐角 152.150°
升交点赤经 343.417°
平近点角 207.970°
近地点: 344.869km
远地点: 349.413km
周期: 91.480分钟
每日圈数: 15.741187
详细信息
固有亮度:
5
最大亮度:
2.5
卫星平台:
Starlink V1.0
覆盖范围:
全球
运营商:
太空探索技术公司
运营商所在国:
美国
制造商(研发单位):
太空探索技术公司
制造商所在国:
美国
使用方式:
暂无
卫星简介
星链(Starlink)计划是由太空探索技术公司(SpaceX)提出的一个巨型低轨卫星互联网星座项目,计划在2019年至2024年间在太空搭建由约1.2万颗卫星组成的“星链”网络,其中1584颗将部署在地球上空550千米处的近地轨道,并从2020年开始工作。该卫星仍在工作。
2D轨道图
3D轨道图
轨道高度分析图
轨道倾角分析图
轨道综合分析图
查看轨道综合分析图